{"data":{"norad_id":57653,"epoch":"2026-09-18T18:51:17.532576Z","epoch_age_seconds":279692,"freshness":"STALE","line1":"1 57653U 23122X   26261.78561959  .00000166  00000+0  15544-4 0  9998","line2":"2 57653  43.0040  71.3458 0001357 261.9255  98.1442 15.27575882171853","mean_motion":15.27575882,"eccentricity":0.0001357,"inclination_deg":43.004,"raan_deg":71.3458,"arg_perigee_deg":261.9255,"mean_anomaly_deg":98.1442,"bstar":1.5544e-5,"rev_number":17185,"period_min":94.267002835542,"perigee_km":482.13036221428,"apogee_km":483.99249146732,"semimajor_km":6861.1984268408,"source":"CELESTRAK","updated_at":"2026-09-21T09:00:33.669441Z"}}